Location: Napier
(39.4830°S, 176.9170°E)
Time: 14:54:36
(UTC+12:00)

Meteor 1-25 Rocket - Pass Details

Date: 15 August 2020
Orbit: 837 x 891 km, 81.2° (Epoch: 23 September)

Event Time Altitude Azimuth Distance (km) Brightness Sun altitude
Rises 19:56:47 0° 191° (S) 3,455 7.6 -28.0°
Reaches altitude 10° 19:59:14 10° 192° (SSW) 2,505 6.8 -28.4°
Enters shadow 20:04:44 77° 252° (WSW) 875 4.2 -29.5°
